sampling_time,wmo_synop_id,msc_id,stn_nam,stn_elev,lat,long,stn_typ,date_tm,rpt_typ,result_time,crnt_buoy_lat,crnt_buoy_lat_qa_summary,crnt_buoy_long,crnt_buoy_long_qa_summary,avg_air_temp_pst10mts,avg_air_temp_pst10mts_qa_summary,avg_sea_sfc_temp_pst10mts,avg_sea_sfc_temp_pst10mts_qa_summary,avg_batry_volt_pst10mts,avg_batry_volt_pst10mts_qa_summary,avg_solr_panl_crnt_pst10mts,avg_solr_panl_crnt_pst10mts_qa_summary,avg_wtr_lvl_snsr_volt_pst10mts,avg_wtr_lvl_snsr_volt_pst10mts_qa_summary,avg_wave_hgt_pst20mts,avg_wave_hgt_pst20mts_qa_summary,pk_wave_hgt_pst20mts,pk_wave_hgt_pst20mts_qa_summary,sig_wave_pd_pst20mts,sig_wave_pd_pst20mts_qa_summary,sig_wave_hgt_pst20mts,sig_wave_hgt_pst20mts_qa_summary,avg_max_wave_hgt_pst20mts,avg_max_wave_hgt_pst20mts_qa_summary,avg_max_wave_pd_pst20mts,avg_max_wave_pd_pst20mts_qa_summary,avg_wave_pd_pst20mts,avg_wave_pd_pst20mts_qa_summary,pk_wave_pd_pst20mts,pk_wave_pd_pst20mts_qa_summary,avg_stn_pres_pst10mts,avg_stn_pres_pst10mts_qa_summary,avg_wnd_spd_pst10mts,avg_wnd_spd_pst10mts_qa_summary,avg_wnd_dir_pst10mts,avg_wnd_dir_pst10mts_qa_summary,max_avg_wnd_spd_pst10mts,max_avg_wnd_spd_pst10mts_qa_summary,wnd_snsr_vert_disp,wnd_snsr_vert_disp_qa_summary,pres_tend_char_pst3hrs,pres_tend_char_pst3hrs_data_flag,pres_tend_amt_pst3hrs,pres_tend_amt_pst3hrs_data_flag,avg_mslp_pst10mts,avg_mslp_pst10mts_data_flag,avg_stn_pres_pst10mts_1,avg_stn_pres_pst10mts_2,avg_wnd_spd_pst10mts_1,avg_wnd_spd_pst10mts_2,avg_wnd_dir_pst10mts_1,avg_wnd_dir_pst10mts_2,max_avg_wnd_spd_pst10mts_1,max_avg_wnd_spd_pst10mts_2,wnd_snsr_vert_disp_1,wnd_snsr_vert_disp_2
2020-10-21T00:00:00Z,44490,9300300,West Bay of Fundy,0.0,44.66056,-66.3686,18,2020-10-21T00:00:00.000Z,108,2020-10-21T00:03:20.759Z,44.66278,100,-66.36612,100,12.1,100,11.8,100,12.8,100,0.0,100,3.5,100,0.4,100,0.9,100,4.4,100,0.5,100,0.7,100,4.1,100,3.7,100,10.0,100,1027.0,100,18.0,100,190,100,22.3,100,5.0,100,3,1,1.7,1,1027.0,1,1027.0,1026.9,18.0,18.0,190,191,22.3,21.6,5.0,4.0
2020-10-21T00:10:00Z,44490,9300300,West Bay of Fundy,0.0,44.66056,-66.3686,18,2020-10-21T00:10:00.000Z,110,2020-10-21T00:13:05.743Z,44.66297,100,-66.36578,100,12.7,100,12.4,100,12.8,100,0.0,100,3.5,100,,-1,,-1,,-1,,-1,,-1,,-1,,-1,,-1,1027.2,100,17.3,100,197,100,19.8,100,5.0,100,3,1,2.1,1,1027.2,1,1027.2,1027.2,17.3,17.3,197,199,19.8,19.4,5.0,4.0
2020-10-21T00:20:00Z,44490,9300300,West Bay of Fundy,0.0,44.66056,-66.3686,18,2020-10-21T00:20:00.000Z,110,2020-10-21T00:23:05.772Z,44.66317,100,-66.36556999999999,100,12.1,100,11.8,100,12.8,100,0.0,100,3.5,100,,-1,,-1,,-1,,-1,,-1,,-1,,-1,,-1,1027.3,100,16.6,100,197,100,19.1,100,5.0,100,1,1,2.2,1,1027.3,1,1027.3,1027.2,16.6,16.6,197,198,19.1,18.7,5.0,4.0
2020-10-21T00:30:00Z,44490,9300300,West Bay of Fundy,0.0,44.66056,-66.3686,18,2020-10-21T00:30:00.000Z,110,2020-10-21T00:33:04.620Z,44.66345,100,-66.3652,100,12.1,100,11.8,100,12.8,100,0.0,100,3.5,100,,-1,,-1,,-1,,-1,,-1,,-1,,-1,,-1,1027.4,100,13.3,100,198,100,15.5,100,5.0,100,1,1,2.3,1,1027.4,1,1027.4,1027.3,13.3,13.3,198,200,15.5,15.1,5.0,4.0
2020-10-21T00:40:00Z,44490,9300300,West Bay of Fundy,0.0,44.66056,-66.3686,18,2020-10-21T00:40:00.000Z,110,2020-10-21T00:43:16.125Z,44.663779999999996,100,-66.3644,100,12.1,100,11.8,100,12.8,100,0.0,100,3.5,100,,-1,,-1,,-1,,-1,,-1,,-1,,-1,,-1,1027.4,100,11.5,100,202,100,13.7,100,5.0,100,1,1,2.2,1,1027.4,1,1027.4,1027.3,11.5,11.2,202,205,13.7,12.6,5.0,4.0
2020-10-21T00:50:00Z,44490,9300300,West Bay of Fundy,0.0,44.66056,-66.3686,18,2020-10-21T00:50:00.000Z,110,2020-10-21T00:53:19.913Z,44.66427,100,-66.3635,100,12.1,100,11.8,100,12.7,100,0.0,100,3.5,100,,-1,,-1,,-1,,-1,,-1,,-1,,-1,,-1,1027.3,100,13.3,100,197,100,16.2,100,5.0,100,1,1,2.1,1,1027.3,1,1027.3,1027.3,13.3,12.6,197,199,16.2,15.5,5.0,4.0
2020-10-21T01:00:00Z,44490,9300300,West Bay of Fundy,0.0,44.66056,-66.3686,18,2020-10-21T01:00:00.000Z,108,2020-10-21T01:03:17.403Z,44.66453,100,-66.36317,100,12.1,100,11.7,100,12.7,100,0.0,100,3.5,100,0.4,100,0.8,100,4.7,100,0.5,100,0.6,100,4.8,100,3.8,100,9.5,100,1027.3,100,11.9,100,214,100,14.0,100,5.0,100,1,1,1.9,1,1027.3,1,1027.3,1027.2,11.9,10.8,214,216,14.0,13.7,5.0,4.0
2020-10-21T01:10:00Z,44490,9300300,West Bay of Fundy,0.0,44.66056,-66.3686,18,2020-10-21T01:10:00.000Z,110,2020-10-21T01:16:21.740Z,44.66458,100,-66.36322,100,12.1,100,11.7,100,12.8,100,0.0,100,3.5,100,,-1,,-1,,-1,,-1,,-1,,-1,,-1,,-1,1027.2,100,12.2,100,213,100,15.1,100,5.0,100,0,1,1.6,1,1027.2,1,1027.2,1027.1,12.2,11.5,213,215,15.1,14.8,5.0,4.0
2020-10-21T01:20:00Z,44490,9300300,West Bay of Fundy,0.0,44.66056,-66.3686,18,2020-10-21T01:20:00.000Z,110,2020-10-21T01:23:37.671Z,44.66475,100,-66.36317,100,12.1,100,11.7,100,12.8,100,0.0,100,3.5,100,,-1,,-1,,-1,,-1,,-1,,-1,,-1,,-1,1027.3,100,11.2,100,225,100,12.6,100,5.0,100,1,1,1.7,1,1027.3,1,1027.3,1027.3,11.2,10.1,225,227,12.6,11.9,5.0,4.0
2020-10-21T01:30:00Z,44490,9300300,West Bay of Fundy,0.0,44.66056,-66.3686,18,2020-10-21T01:30:00.000Z,110,2020-10-21T01:33:36.131Z,44.66482,100,-66.36317,100,12.1,100,11.7,100,12.8,100,0.0,100,3.5,100,,-1,,-1,,-1,,-1,,-1,,-1,,-1,,-1,1027.5,100,9.7,100,218,100,12.2,100,5.0,100,1,1,1.6,1,1027.5,1,1027.5,1027.4,9.7,8.6,218,220,12.2,10.8,5.0,4.0
2020-10-21T01:40:00Z,44490,9300300,West Bay of Fundy,0.0,44.66056,-66.3686,18,2020-10-21T01:40:00.000Z,110,2020-10-21T01:43:37.648Z,44.66502,100,-66.36328,100,12.1,100,11.7,100,12.7,100,0.0,100,3.5,100,,-1,,-1,,-1,,-1,,-1,,-1,,-1,,-1,1027.7,100,11.9,100,230,100,14.4,100,5.0,100,1,1,1.6,1,1027.7,1,1027.7,1027.6,11.9,10.4,230,232,14.4,14.0,5.0,4.0
2020-10-21T01:50:00Z,44490,9300300,West Bay of Fundy,0.0,44.66056,-66.3686,18,2020-10-21T01:50:00.000Z,110,2020-10-21T01:53:38.803Z,44.66518,100,-66.36343000000001,100,12.1,100,11.7,100,12.7,100,0.0,100,3.5,100,,-1,,-1,,-1,,-1,,-1,,-1,,-1,,-1,1027.6,100,11.2,100,229,100,13.7,100,5.0,100,1,1,1.4,1,1027.6,1,1027.6,1027.6,11.2,10.1,229,232,13.7,13.0,5.0,4.0
2020-10-21T02:00:00Z,44490,9300300,West Bay of Fundy,0.0,44.66056,-66.3686,18,2020-10-21T02:00:00.000Z,108,2020-10-21T02:02:37.658Z,44.66533,100,-66.36357,100,12.1,100,11.7,100,12.7,100,0.0,100,3.5,100,0.4,100,1.1,100,5.2,100,0.6,100,0.7,100,5.9,100,4.0,100,8.3,100,1027.4,100,8.6,100,207,100,10.1,100,5.0,100,1,1,1.0,1,1027.4,1,1027.4,1027.3,8.6,7.9,207,209,10.1,9.7,5.0,4.0
2020-10-21T02:10:00Z,44490,9300300,West Bay of Fundy,0.0,44.66056,-66.3686,18,2020-10-21T02:10:00.000Z,110,2020-10-21T02:15:38.623Z,44.66547,100,-66.36372,100,12.1,100,11.7,100,12.7,100,0.0,100,3.5,100,,-1,,-1,,-1,,-1,,-1,,-1,,-1,,-1,1027.3,100,8.6,100,211,100,10.1,100,5.0,100,1,1,0.8,1,1027.3,1,1027.3,1027.3,8.6,7.6,211,214,10.1,9.0,5.0,4.0
2020-10-21T02:20:00Z,44490,9300300,West Bay of Fundy,0.0,44.66056,-66.3686,18,2020-10-21T02:20:00.000Z,110,2020-10-21T02:22:37.552Z,44.6655,100,-66.36375,100,12.0,100,11.7,100,12.7,100,0.0,100,3.5,100,,-1,,-1,,-1,,-1,,-1,,-1,,-1,,-1,1027.3,100,8.6,100,202,100,9.7,100,5.0,100,1,1,0.5,1,1027.3,1,1027.3,1027.3,8.6,7.6,202,205,9.7,9.0,5.0,4.0
2020-10-21T02:30:00Z,44490,9300300,West Bay of Fundy,0.0,44.66056,-66.3686,18,2020-10-21T02:30:00.000Z,110,2020-10-21T02:32:41.559Z,44.66555,100,-66.36386999999999,100,12.0,100,11.7,100,12.7,100,0.0,100,3.5,100,,-1,,-1,,-1,,-1,,-1,,-1,,-1,,-1,1027.2,100,9.0,100,197,100,12.2,100,5.0,100,0,1,0.4,1,1027.2,1,1027.2,1027.2,9.0,7.9,197,199,12.2,10.8,5.0,4.0
2020-10-21T02:40:00Z,44490,9300300,West Bay of Fundy,0.0,44.66056,-66.3686,18,2020-10-21T02:40:00.000Z,110,2020-10-21T02:42:43.959Z,44.66557,100,-66.36398,100,12.0,100,11.7,100,12.7,100,0.0,100,3.5,100,,-1,,-1,,-1,,-1,,-1,,-1,,-1,,-1,1027.3,100,10.1,100,199,100,12.6,100,5.0,100,0,1,0.6,1,1027.3,1,1027.3,1027.3,10.1,9.0,199,202,12.6,11.9,5.0,4.0
2020-10-21T02:50:00Z,44490,9300300,West Bay of Fundy,0.0,44.66056,-66.3686,18,2020-10-21T02:50:00.000Z,110,2020-10-21T02:52:53.971Z,44.66557,100,-66.36403,100,12.1,100,11.7,100,12.7,100,0.0,100,3.5,100,,-1,,-1,,-1,,-1,,-1,,-1,,-1,,-1,1027.4,100,13.3,100,200,100,16.2,100,5.0,100,0,1,0.6,1,1027.4,1,1027.4,1027.3,13.3,12.6,200,202,16.2,15.8,5.0,4.0
2020-10-21T03:00:00Z,44490,9300300,West Bay of Fundy,0.0,44.66056,-66.3686,18,2020-10-21T03:00:00.000Z,108,2020-10-21T03:03:54.946Z,44.66553,100,-66.36399999999999,100,12.1,100,11.7,100,12.7,100,0.0,100,3.5,100,0.3,100,0.9,100,4.7,100,0.5,100,0.6,100,5.2,100,3.8,100,7.4,100,1027.4,100,10.8,100,212,100,13.0,100,5.0,100,1,1,0.4,1,1027.4,1,1027.4,1027.4,10.8,10.8,212,215,13.0,13.0,5.0,4.0
2020-10-21T03:10:00Z,44490,9300300,West Bay of Fundy,0.0,44.66056,-66.3686,18,2020-10-21T03:10:00.000Z,110,2020-10-21T03:16:08.272Z,44.66558,100,-66.36402,100,12.1,100,11.8,100,12.7,100,0.0,100,3.5,100,,-1,,-1,,-1,,-1,,-1,,-1,,-1,,-1,1027.6,100,11.9,100,231,100,14.0,100,5.0,100,3,1,0.3,1,1027.6,1,1027.6,1027.5,11.9,12.2,231,233,14.0,14.4,5.0,4.0
2020-10-21T03:20:00Z,44490,9300300,West Bay of Fundy,0.0,44.66056,-66.3686,18,2020-10-21T03:20:00.000Z,110,2020-10-21T03:23:07.713Z,44.66557,100,-66.36393000000001,100,12.1,100,11.8,100,12.7,100,0.0,100,3.5,100,,-1,,-1,,-1,,-1,,-1,,-1,,-1,,-1,1027.7,100,12.6,100,234,100,14.8,100,5.0,100,3,1,0.4,1,1027.7,1,1027.7,1027.7,12.6,13.0,234,236,14.8,15.1,5.0,4.0
2020-10-21T03:30:00Z,44490,9300300,West Bay of Fundy,0.0,44.66056,-66.3686,18,2020-10-21T03:30:00.000Z,110,2020-10-21T03:33:12.008Z,44.66558,100,-66.36388000000001,100,12.1,100,11.8,100,12.7,100,0.0,100,3.5,100,,-1,,-1,,-1,,-1,,-1,,-1,,-1,,-1,1027.6,100,11.5,100,229,100,13.0,100,5.0,100,3,1,0.2,1,1027.6,1,1027.6,1027.5,11.5,11.9,229,231,13.0,13.3,5.0,4.0
2020-10-21T03:40:00Z,44490,9300300,West Bay of Fundy,0.0,44.66056,-66.3686,18,2020-10-21T03:40:00.000Z,110,2020-10-21T03:43:08.450Z,44.66557,100,-66.36386999999999,100,12.1,100,11.8,100,12.7,100,0.0,100,3.5,100,,-1,,-1,,-1,,-1,,-1,,-1,,-1,,-1,1027.1,100,7.9,100,199,100,11.5,100,5.0,100,8,1,-0.3,1,1027.1,1,1027.1,1027.0,7.9,7.9,199,201,11.5,11.5,5.0,4.0
2020-10-21T03:50:00Z,44490,9300300,West Bay of Fundy,0.0,44.66056,-66.3686,18,2020-10-21T03:50:00.000Z,110,2020-10-21T03:53:13.955Z,44.66557,100,-66.36385,100,12.0,100,11.7,100,12.7,100,0.0,100,3.5,100,,-1,,-1,,-1,,-1,,-1,,-1,,-1,,-1,1027.3,100,9.0,100,207,100,11.2,100,5.0,100,8,1,-0.1,1,1027.3,1,1027.3,1027.3,9.0,9.4,207,209,11.2,11.2,5.0,4.0
2020-10-21T04:00:00Z,44490,9300300,West Bay of Fundy,0.0,44.66056,-66.3686,18,2020-10-21T04:00:00.000Z,108,2020-10-21T04:03:15.849Z,44.66557,100,-66.36381999999999,100,12.0,100,11.8,100,12.7,100,0.0,100,3.5,100,0.3,100,0.9,100,5.0,100,0.5,100,0.6,100,5.7,100,3.9,100,8.7,100,1027.3,100,8.6,100,207,100,10.1,100,5.0,100,0,1,0.1,1,1027.3,1,1027.3,1027.3,8.6,8.6,207,209,10.1,10.1,5.0,4.0
2020-10-21T04:10:00Z,44490,9300300,West Bay of Fundy,0.0,44.66056,-66.3686,18,2020-10-21T04:10:00.000Z,110,2020-10-21T04:16:33.671Z,44.66557,100,-66.36381999999999,100,12.0,100,11.8,100,12.7,100,0.0,100,3.5,100,,-1,,-1,,-1,,-1,,-1,,-1,,-1,,-1,1027.3,100,7.6,100,194,100,8.6,100,5.0,100,0,1,0.1,1,1027.3,1,1027.3,1027.2,7.6,7.2,194,196,8.6,8.6,5.0,4.0
2020-10-21T04:20:00Z,44490,9300300,West Bay of Fundy,0.0,44.66056,-66.3686,18,2020-10-21T04:20:00.000Z,110,2020-10-21T04:23:30.287Z,44.66558,100,-66.36383000000001,100,12.0,100,11.8,100,12.7,100,0.0,100,3.5,100,,-1,,-1,,-1,,-1,,-1,,-1,,-1,,-1,1027.3,100,7.2,100,197,100,9.0,100,5.0,100,0,1,0.0,1,1027.3,1,1027.3,1027.3,7.2,7.2,197,199,9.0,9.0,5.0,4.0
2020-10-21T04:30:00Z,44490,9300300,West Bay of Fundy,0.0,44.66056,-66.3686,18,2020-10-21T04:30:00.000Z,110,2020-10-21T04:33:26.900Z,44.665620000000004,100,-66.36388000000001,100,12.0,100,11.8,100,12.7,100,0.0,100,3.5,100,,-1,,-1,,-1,,-1,,-1,,-1,,-1,,-1,1027.2,100,7.2,100,188,100,8.6,100,5.0,100,8,1,-0.2,1,1027.2,1,1027.2,1027.2,7.2,6.8,188,190,8.6,8.3,5.0,4.0
2020-10-21T04:40:00Z,44490,9300300,West Bay of Fundy,0.0,44.66056,-66.3686,18,2020-10-21T04:40:00.000Z,110,2020-10-21T04:43:31.885Z,44.66563,100,-66.3639,100,12.0,100,11.8,100,12.7,100,0.0,100,3.5,100,,-1,,-1,,-1,,-1,,-1,,-1,,-1,,-1,1027.2,100,7.6,100,180,100,9.0,100,5.0,100,5,1,-0.5,1,1027.2,1,1027.2,1027.2,7.6,7.2,180,182,9.0,8.6,5.0,4.0
2020-10-21T04:50:00Z,44490,9300300,West Bay of Fundy,0.0,44.66056,-66.3686,18,2020-10-21T04:50:00.000Z,110,2020-10-21T04:53:32.036Z,44.66565,100,-66.36397,100,11.8,100,11.8,100,12.7,100,0.0,100,3.5,100,,-1,,-1,,-1,,-1,,-1,,-1,,-1,,-1,1027.5,100,7.6,100,178,100,8.6,100,5.0,100,5,1,-0.2,1,1027.5,1,1027.5,1027.4,7.6,6.8,178,180,8.6,8.3,5.0,4.0
2020-10-21T05:00:00Z,44490,9300300,West Bay of Fundy,0.0,44.66056,-66.3686,18,2020-10-21T05:00:00.000Z,108,2020-10-21T05:04:42.530Z,44.66567,100,-66.36399999999999,100,11.8,100,11.7,100,12.7,100,0.0,100,3.5,100,0.3,100,0.7,100,5.0,100,0.5,100,0.5,100,5.0,100,3.7,100,8.3,100,1027.6,100,7.9,100,188,100,9.4,100,5.0,100,3,1,0.2,1,1027.6,1,1027.6,1027.5,7.9,7.6,188,190,9.4,9.7,5.0,4.0
2020-10-21T05:10:00Z,44490,9300300,West Bay of Fundy,0.0,44.66056,-66.3686,18,2020-10-21T05:10:00.000Z,110,2020-10-21T05:17:45.208Z,44.6657,100,-66.36399999999999,100,11.8,100,11.7,100,12.7,100,0.0,100,3.5,100,,-1,,-1,,-1,,-1,,-1,,-1,,-1,,-1,1027.5,100,6.1,100,188,100,8.3,100,5.0,100,2,1,0.2,1,1027.5,1,1027.5,1027.4,6.1,6.1,188,191,8.3,8.3,5.0,4.0
2020-10-21T05:20:00Z,44490,9300300,West Bay of Fundy,0.0,44.66056,-66.3686,18,2020-10-21T05:20:00.000Z,110,2020-10-21T05:23:39.646Z,44.66567,100,-66.36398,100,11.8,100,11.7,100,12.7,100,0.0,100,3.5,100,,-1,,-1,,-1,,-1,,-1,,-1,,-1,,-1,1027.5,100,6.8,100,187,100,7.9,100,5.0,100,1,1,0.2,1,1027.5,1,1027.5,1027.5,6.8,6.5,187,189,7.9,7.9,5.0,4.0
2020-10-21T05:30:00Z,44490,9300300,West Bay of Fundy,0.0,44.66056,-66.3686,18,2020-10-21T05:30:00.000Z,110,2020-10-21T05:33:44.565Z,44.66567,100,-66.36405,100,11.7,100,11.7,100,12.7,100,0.0,100,3.5,100,,-1,,-1,,-1,,-1,,-1,,-1,,-1,,-1,1027.5,100,6.8,100,178,100,7.9,100,5.0,100,1,1,0.3,1,1027.5,1,1027.5,1027.5,6.8,6.5,178,180,7.9,7.6,5.0,4.0
2020-10-21T05:40:00Z,44490,9300300,West Bay of Fundy,0.0,44.66056,-66.3686,18,2020-10-21T05:40:00.000Z,110,2020-10-21T05:42:47.403Z,44.66563,100,-66.36405,100,11.8,100,11.7,100,12.7,100,0.0,100,3.5,100,,-1,,-1,,-1,,-1,,-1,,-1,,-1,,-1,1027.6,100,7.6,100,178,100,8.3,100,5.0,100,3,1,0.3,1,1027.6,1,1027.6,1027.6,7.6,7.2,178,180,8.3,7.9,5.0,4.0
2020-10-21T05:50:00Z,44490,9300300,West Bay of Fundy,0.0,44.66056,-66.3686,18,2020-10-21T05:50:00.000Z,110,2020-10-21T05:53:48.629Z,44.66563,100,-66.3641,100,11.8,100,11.7,100,12.6,100,0.0,100,3.5,100,,-1,,-1,,-1,,-1,,-1,,-1,,-1,,-1,1027.7,100,6.5,100,177,100,7.6,100,5.0,100,3,1,0.3,1,1027.7,1,1027.7,1027.6,6.5,5.8,177,179,7.6,7.2,5.0,4.0
2020-10-21T06:00:00Z,44490,9300300,West Bay of Fundy,0.0,44.66056,-66.3686,18,2020-10-21T06:00:00.000Z,108,2020-10-21T06:03:51.463Z,44.66563,100,-66.36417,100,11.9,100,11.8,100,12.7,100,0.0,100,3.5,100,0.3,100,0.6,100,3.9,100,0.4,100,0.5,100,4.1,100,3.4,100,8.0,100,1027.8,100,5.0,100,177,100,5.8,100,5.0,100,3,1,0.4,1,1027.8,1,1027.8,1027.8,5.0,4.7,177,179,5.8,5.4,5.0,4.0
2020-10-21T06:10:00Z,44490,9300300,West Bay of Fundy,0.0,44.66056,-66.3686,18,2020-10-21T06:10:00.000Z,110,2020-10-21T06:15:50.580Z,44.6656,100,-66.36418,100,11.9,100,11.8,100,12.7,100,0.0,100,3.5,100,,-1,,-1,,-1,,-1,,-1,,-1,,-1,,-1,1027.6,100,3.2,100,174,100,4.3,100,5.0,100,3,1,0.1,1,1027.6,1,1027.6,1027.6,3.2,3.2,174,175,4.3,4.0,5.0,4.0
2020-10-21T06:20:00Z,44490,9300300,West Bay of Fundy,0.0,44.66056,-66.3686,18,2020-10-21T06:20:00.000Z,110,2020-10-21T06:22:52.227Z,44.6656,100,-66.36431999999999,100,11.9,100,11.7,100,12.7,100,0.0,100,3.5,100,,-1,,-1,,-1,,-1,,-1,,-1,,-1,,-1,1027.8,100,5.0,100,183,100,6.8,100,5.0,100,3,1,0.1,1,1027.8,1,1027.8,1027.8,5.0,5.0,183,185,6.8,6.8,5.0,4.0
2020-10-21T06:30:00Z,44490,9300300,West Bay of Fundy,0.0,44.66056,-66.3686,18,2020-10-21T06:30:00.000Z,110,2020-10-21T06:33:58.556Z,44.66558,100,-66.36445,100,11.9,100,11.7,100,12.7,100,0.0,100,3.5,100,,-1,,-1,,-1,,-1,,-1,,-1,,-1,,-1,1027.9,100,6.1,100,176,100,7.6,100,5.0,100,3,1,0.3,1,1027.9,1,1027.9,1027.8,6.1,5.8,176,178,7.6,7.2,5.0,4.0
2020-10-21T06:40:00Z,44490,9300300,West Bay of Fundy,0.0,44.66056,-66.3686,18,2020-10-21T06:40:00.000Z,110,2020-10-21T06:43:05.888Z,44.66558,100,-66.36463,100,11.9,100,11.7,100,12.6,100,0.0,100,3.5,100,,-1,,-1,,-1,,-1,,-1,,-1,,-1,,-1,1027.8,100,3.2,100,178,100,4.7,100,5.0,100,3,1,0.8,1,1027.8,1,1027.8,1027.8,3.2,3.2,178,180,4.7,4.3,5.0,4.0
2020-10-21T06:50:00Z,44490,9300300,West Bay of Fundy,0.0,44.66056,-66.3686,18,2020-10-21T06:50:00.000Z,110,2020-10-21T06:53:04.327Z,44.66552,100,-66.3648,100,11.9,100,11.7,100,12.6,100,0.0,100,3.5,100,,-1,,-1,,-1,,-1,,-1,,-1,,-1,,-1,1027.9,100,5.4,100,269,100,7.2,100,5.0,100,3,1,0.6,1,1027.9,1,1027.9,1027.9,5.4,5.4,269,272,7.2,7.2,5.0,4.0
2020-10-21T07:00:00Z,44490,9300300,West Bay of Fundy,0.0,44.66056,-66.3686,18,2020-10-21T07:00:00.000Z,108,2020-10-21T07:03:06.240Z,44.66555,100,-66.36485,100,11.8,100,11.7,100,12.6,100,0.0,100,3.5,100,0.2,100,0.5,100,4.1,100,0.3,100,0.4,100,4.5,100,3.5,100,3.4,100,1027.8,100,5.8,100,286,100,7.6,100,5.0,100,1,1,0.5,1,1027.8,1,1027.8,1027.8,5.8,5.8,286,288,7.6,7.6,5.0,4.0
2020-10-21T07:10:00Z,44490,9300300,West Bay of Fundy,0.0,44.66056,-66.3686,18,2020-10-21T07:10:00.000Z,110,2020-10-21T07:16:08.665Z,44.66543,100,-66.36488,100,11.7,100,11.7,100,12.6,100,0.0,100,3.5,100,,-1,,-1,,-1,,-1,,-1,,-1,,-1,,-1,1027.6,100,2.5,100,313,100,4.7,100,5.0,100,1,1,0.4,1,1027.6,1,1027.6,1027.6,2.5,2.5,313,316,4.7,4.7,5.0,4.0
2020-10-21T07:20:00Z,44490,9300300,West Bay of Fundy,0.0,44.66056,-66.3686,18,2020-10-21T07:20:00.000Z,110,2020-10-21T07:23:04.163Z,44.66532,100,-66.36537,100,11.7,100,11.7,100,12.6,100,0.0,100,3.5,100,,-1,,-1,,-1,,-1,,-1,,-1,,-1,,-1,1027.7,100,4.7,100,338,100,6.8,100,5.0,100,0,1,0.4,1,1027.7,1,1027.7,1027.7,4.7,4.7,338,341,6.8,6.5,5.0,4.0
2020-10-21T07:30:00Z,44490,9300300,West Bay of Fundy,0.0,44.66056,-66.3686,18,2020-10-21T07:30:00.000Z,110,2020-10-21T07:33:05.694Z,44.66512,100,-66.36587,100,11.7,100,11.7,100,12.6,100,0.0,100,3.5,100,,-1,,-1,,-1,,-1,,-1,,-1,,-1,,-1,1027.8,100,6.5,100,344,100,8.3,100,5.0,100,1,1,0.6,1,1027.8,1,1027.8,1027.8,6.5,6.5,344,348,8.3,8.3,5.0,4.0
2020-10-21T07:40:00Z,44490,9300300,West Bay of Fundy,0.0,44.66056,-66.3686,18,2020-10-21T07:40:00.000Z,110,2020-10-21T07:43:07.590Z,44.66485,100,-66.36627,100,11.6,100,11.7,100,12.6,100,0.0,100,3.5,100,,-1,,-1,,-1,,-1,,-1,,-1,,-1,,-1,1027.8,100,7.2,100,349,100,8.3,100,5.0,100,1,1,0.7,1,1027.8,1,1027.8,1027.8,7.2,7.2,349,354,8.3,8.6,5.0,4.0
2020-10-21T07:50:00Z,44490,9300300,West Bay of Fundy,0.0,44.66056,-66.3686,18,2020-10-21T07:50:00.000Z,110,2020-10-21T07:53:09.470Z,44.66435,100,-66.36685,100,11.7,100,11.7,100,12.6,100,0.0,100,3.5,100,,-1,,-1,,-1,,-1,,-1,,-1,,-1,,-1,1027.8,100,8.3,100,354,100,10.8,100,5.0,100,0,1,0.4,1,1027.8,1,1027.8,1027.8,8.3,8.6,354,358,10.8,10.8,5.0,4.0
2020-10-21T08:00:00Z,44490,9300300,West Bay of Fundy,0.0,44.66056,-66.3686,18,2020-10-21T08:00:00.000Z,108,2020-10-21T08:03:35.043Z,44.66368,100,-66.36708,100,11.7,100,11.7,100,12.6,100,0.0,100,3.5,100,0.2,100,0.5,100,4.8,100,0.3,100,0.4,100,4.9,100,4.0,100,8.7,100,1027.8,100,8.6,100,13,100,10.4,100,5.0,100,0,1,0.2,1,1027.8,1,1027.8,1027.7,8.6,9.0,13,16,10.4,10.8,5.0,4.0
2020-10-21T08:10:00Z,44490,9300300,West Bay of Fundy,0.0,44.66056,-66.3686,18,2020-10-21T08:10:00.000Z,110,2020-10-21T08:16:30.017Z,44.6635,100,-66.36708,100,11.7,100,11.7,100,12.6,100,0.0,100,3.5,100,,-1,,-1,,-1,,-1,,-1,,-1,,-1,,-1,1027.8,100,9.7,100,23,100,11.5,100,5.0,100,2,1,0.4,1,1027.8,1,1027.8,1027.8,9.7,9.0,23,26,11.5,11.2,5.0,4.0
2020-10-21T08:20:00Z,44490,9300300,West Bay of Fundy,0.0,44.66056,-66.3686,18,2020-10-21T08:20:00.000Z,110,2020-10-21T08:23:34.065Z,44.66353,100,-66.36713,100,11.7,100,11.7,100,12.6,100,0.0,100,3.5,100,,-1,,-1,,-1,,-1,,-1,,-1,,-1,,-1,1027.9,100,9.0,100,30,100,10.8,100,5.0,100,1,1,0.4,1,1027.9,1,1027.9,1027.8,9.0,7.9,30,32,10.8,9.0,5.0,4.0
2020-10-21T08:30:00Z,44490,9300300,West Bay of Fundy,0.0,44.66056,-66.3686,18,2020-10-21T08:30:00.000Z,110,2020-10-21T08:33:37.465Z,44.66348,100,-66.36717,100,11.7,100,11.7,100,12.6,100,0.0,100,3.5,100,,-1,,-1,,-1,,-1,,-1,,-1,,-1,,-1,1027.9,100,10.1,100,23,100,11.5,100,5.0,100,1,1,0.4,1,1027.9,1,1027.9,1027.9,10.1,9.0,23,25,11.5,10.4,5.0,4.0
2020-10-21T08:40:00Z,44490,9300300,West Bay of Fundy,0.0,44.66056,-66.3686,18,2020-10-21T08:40:00.000Z,110,2020-10-21T08:43:37.466Z,44.66325,100,-66.36705,100,11.7,100,11.7,100,12.6,100,0.0,100,3.5,100,,-1,,-1,,-1,,-1,,-1,,-1,,-1,,-1,1027.9,100,11.5,100,23,100,13.3,100,5.0,100,1,1,0.3,1,1027.9,1,1027.9,1027.9,11.5,9.7,23,25,13.3,11.9,5.0,4.0
2020-10-21T08:50:00Z,44490,9300300,West Bay of Fundy,0.0,44.66056,-66.3686,18,2020-10-21T08:50:00.000Z,110,2020-10-21T08:53:38.802Z,44.66305,100,-66.36688000000001,100,11.8,100,11.7,100,12.6,100,0.0,100,3.5,100,,-1,,-1,,-1,,-1,,-1,,-1,,-1,,-1,1028.1,100,13.3,100,20,100,15.5,100,5.0,100,2,1,0.5,1,1028.1,1,1028.1,1028.1,13.3,12.2,20,22,15.5,15.5,5.0,4.0
2020-10-21T09:00:00Z,44490,9300300,West Bay of Fundy,0.0,44.66056,-66.3686,18,2020-10-21T09:00:00.000Z,108,2020-10-21T09:03:55.455Z,44.66307000000001,100,-66.36695,100,11.9,100,11.7,100,12.6,100,0.0,100,3.5,100,0.2,100,0.4,100,5.9,100,0.3,100,0.3,100,6.4,100,4.4,100,10.5,100,1028.1,100,18.0,100,24,100,21.6,100,5.0,100,3,1,0.3,1,1028.1,1,1028.1,1028.1,18.0,17.3,24,27,21.6,20.9,5.0,4.0
2020-10-21T09:10:00Z,44490,9300300,West Bay of Fundy,0.0,44.66056,-66.3686,18,2020-10-21T09:10:00.000Z,110,2020-10-21T09:15:49.995Z,44.66288,100,-66.36678,100,11.8,100,11.7,100,12.6,100,0.0,100,3.5,100,,-1,,-1,,-1,,-1,,-1,,-1,,-1,,-1,1028.2,100,23.0,100,32,100,28.4,100,5.0,100,3,1,0.6,1,1028.2,1,1028.2,1028.2,23.0,22.0,32,34,28.4,26.6,5.0,4.0
2020-10-21T09:20:00Z,44490,9300300,West Bay of Fundy,0.0,44.66056,-66.3686,18,2020-10-21T09:20:00.000Z,110,2020-10-21T09:22:42.846Z,44.6627,100,-66.36658,100,11.8,100,11.7,100,12.6,100,0.0,100,3.5,100,,-1,,-1,,-1,,-1,,-1,,-1,,-1,,-1,1028.3,100,25.6,100,36,100,29.2,100,5.0,100,3,1,0.5,1,1028.3,1,1028.3,1028.2,25.6,24.5,36,38,29.2,27.7,5.0,4.0
2020-10-21T09:30:00Z,44490,9300300,West Bay of Fundy,0.0,44.66056,-66.3686,18,2020-10-21T09:30:00.000Z,110,2020-10-21T09:32:53.409Z,44.66255,100,-66.36648000000001,100,11.6,100,11.7,100,12.6,100,0.0,100,3.5,100,,-1,,-1,,-1,,-1,,-1,,-1,,-1,,-1,1028.3,100,27.0,100,35,100,32.8,100,5.0,100,3,1,0.4,1,1028.3,1,1028.3,1028.2,27.0,25.9,35,38,32.8,31.0,5.0,4.0
2020-10-21T09:40:00Z,44490,9300300,West Bay of Fundy,0.0,44.66056,-66.3686,18,2020-10-21T09:40:00.000Z,110,2020-10-21T09:42:54.381Z,44.66248,100,-66.36645,100,11.6,100,11.6,100,12.6,100,0.0,100,3.5,100,,-1,,-1,,-1,,-1,,-1,,-1,,-1,,-1,1028.4,100,29.2,100,37,100,34.2,100,5.0,100,3,1,0.6,1,1028.4,1,1028.4,1028.4,29.2,28.1,37,39,34.2,33.8,5.0,4.0
2020-10-21T09:50:00Z,44490,9300300,West Bay of Fundy,0.0,44.66056,-66.3686,18,2020-10-21T09:50:00.000Z,110,2020-10-21T09:53:57.762Z,44.6624,100,-66.36635,100,11.5,100,11.6,100,12.6,100,0.0,100,3.5,100,,-1,,-1,,-1,,-1,,-1,,-1,,-1,,-1,1028.6,100,28.1,100,36,100,32.4,100,5.0,100,3,1,0.6,1,1028.6,1,1028.6,1028.5,28.1,27.0,36,39,32.4,31.0,5.0,4.0
2020-10-21T10:00:00Z,44490,9300300,West Bay of Fundy,0.0,44.66056,-66.3686,18,2020-10-21T10:00:00.000Z,108,2020-10-21T10:02:58.812Z,44.66238,100,-66.36638,100,11.4,100,11.6,100,12.6,100,0.0,100,3.5,100,0.2,100,0.6,100,3.0,100,0.4,100,0.5,100,3.4,100,2.6,100,10.5,100,1028.6,100,29.2,100,37,100,33.8,100,5.0,100,3,1,0.7,1,1028.6,1,1028.6,1028.5,29.2,28.4,37,39,33.8,33.8,5.0,4.0
2020-10-21T10:10:00Z,44490,9300300,West Bay of Fundy,0.0,44.66056,-66.3686,18,2020-10-21T10:10:00.000Z,110,2020-10-21T10:15:57.005Z,44.662420000000004,100,-66.36648000000001,100,11.4,100,11.6,100,12.6,100,0.0,100,3.5,100,,-1,,-1,,-1,,-1,,-1,,-1,,-1,,-1,1028.5,100,29.9,100,40,100,35.3,100,5.0,100,2,1,0.8,1,1028.5,1,1028.5,1028.4,29.9,28.8,40,42,35.3,33.8,5.0,4.0
2020-10-21T10:20:00Z,44490,9300300,West Bay of Fundy,0.0,44.66056,-66.3686,18,2020-10-21T10:20:00.000Z,110,2020-10-21T10:24:02.876Z,44.66233,100,-66.36633,100,11.5,100,11.7,100,12.6,100,0.0,100,3.5,100,,-1,,-1,,-1,,-1,,-1,,-1,,-1,,-1,1028.3,100,30.6,100,42,100,36.7,100,5.0,100,1,1,0.6,1,1028.3,1,1028.3,1028.3,30.6,29.5,42,44,36.7,36.0,5.0,4.0